User: anonymous   Login
Location: Unspecified
(0.0000°N, 0.0000°E)
Time: 14:16:06
(UTC+02:00)
Language:

Meteor 1-31 Rocket - Orbit

View from above orbital plane
View from above orbital plane
View from above satellite
View from above satellite

Ground track
Ground track

The orbit data is extracted from the following two-line orbital elements,

1 12586U 81065B   15148.18585488  .00001607  00000-0  10722-3 0  9997
2 12586 097.4241 139.4366 0018155 258.7574 101.1615 15.08309323843229
Epoch (UTC): 28 May 2015 04:27:37
Eccentricity: 0.0018155
inclination: 97.4241°
perigee height: 529 km
apogee height: 554 km
right ascension of ascending node: 139.4366°
argument of perigee: 258.7574°
revolutions per day: 15.08309323
mean anomaly at epoch: 101.1615°
orbit number at epoch: 84322

The dashed part of the orbit path shows where the satellite is in the earth's shadow,  

DLR